SCP
0 0 0 0 0 0 0 0 0 0 0 0 0 0 0 0 0 0 0 0 0 0 0 0 0 0 0 0 0 0 0 0 0 0 0 0 0 0 0 0 0 0 0
0 0 0 0 0 0 0 0 0 0 0 0 0 0 0 0 0 0 0 0 0 0 0 0 0 0 0 0 0 0 0 0 0 0 0 0 0 0 0 0 0 0 0
0 0 0 0 0 0 0 0 0 0 0 0 0 0 0 0 0 0 0 0 0 0 0 0 0 0 0 0 0 0 0 0 0 0 0 0 0 0 0 0 0 0 0
0 0 0 0 0 0 0 0 0 0 0 0 0 0 0 0 0 0 0 0 0 0 0 0 0 0 0 0 0 0 0 0 0 0 0 0 0 0 0 0 0 0 0
0 0 0 0 0 0 0 0 0 0 0 0 0 0 0 0 0 0 0 0 0 0 0 0 0 0 0 0 0 0 0 0 0 0 0 0 0 0 0 0 0 0 0
0 0 0 0 0 0 0 0 0 0 0 0 0 0 0 0 0 0 0 0 0 0 0 0 0 0 0 0 0 0 0 0 0 0 0 0 0 0 0 0 0 0 0
0 0 0 0 0 0 0 0 0 0 0 0 0 0 0 0 0 0 0 0 0 0 0 0 0 0 0 0 0 0 0 0 0 0 0 0 0 0 0 0 0 0 0
0 0 0 0 0 0 0 0 0 0 0 0 0 0 0 0 0 0 0 0 0 0 0 0 0 0 0 0 0 0 0 0 0 0 0 0 0 0 0 0 0 0 0
0 0 0 0 0 0 0 0 0 0 0 0 0 0 0 0 0 0 0 0 0 0 0 0 0 0 0 0 0 0 0 0 0 0 0 0 0 0 0 0 0 0 0
0 0 0 0 0 0 0 0 0 0 0 0 0 0 0 0 0 0 0 0 0 0 0 0 0 0 0 0 0 0 0 0 0 0 0 0 0 0 0 0 0 0 0
0 0 0 0 0 0 0 0 0 0 0 0 0 0 0 0 0 0 0 0 0 0 0 0 0 0 0 0 0 0 0 0 0 0 0 0 0 0 0 0 0 0 0
0 0 0 0 0 0 0 0 0 0 0 0 0 0 0 0 0 0 0 0 0 0 0 0 0 0 0 0 0 0 0 0 0 0 0 0 0 0 0 0 0 0 0
0 0 0 0 0 0 0 0 0 0 0 0 0 0 0 0 0 0 0 0 0 0 0 0 0 0 0 0 0 0 0 0 0 0 0 0 0 0 0 0 0 0 0
0 0 0 0 0 0 0 0 0 0 0 0 0 0 0 0 0 0 0 0 0 0 0 0 0 0 0 0 0 0 0 0 0 0 0 0 0 0 0 0 0 0 0
0 0 0 0 0 0 0 0 0 0 0 0 0 0 0 0 0 0 0 0 0 0 0 0 0 0 0 0 0 0 0 0 0 0 0 0 0 0 0 0 0 0 0
0 0 0 0 0 0 0 0 0 0 0 0 0 0 0 0 0 0 0 0 0 0 0 0 0 0 0 0 0 0 0 0 0 0 0 0 0 0 0 0 0 0 0
0 0 0 0 0 0 0 0 0 0 0 0 0 0 0 0 0 0 0 0 0 0 0 0 0 0 0 0 0 0 0 0 0 0 0 0 0 0 -0 0 0 0 0
0 0 0 0 0 0 0 0 0 0 0 0 0 0 0 0 0 0 0 0 0 0 0 0 0 0 0 0 0 0 0 0 0 0 0 0 0 0 0 0 0 0 0
0 0 0 0 0 0 0 0 0 0 0 0 0 0 0 0 0 0 0 0 0 0 0 0 0 0 0 0 0 0 0 0 0 0 0 0 0 0 0 0 0 0 0
0 0 0 0 0 0 0 0 0 0 0 0 0 0 0 0 0 0 0 0 0 0 0 0 0 0 0 0 0 0 0 0 0 0 0 0 0 0 0 0 0 0 0
0 0 0 0 0 0 0 0 0 0 0 0 0 0 0 0 0 0 0 0 0 0 0 0 0 0 0 0 0 0 0 0 0 0 0 0 0 0 0 0 0 0 0
0 0 0 0 0 0 0 0 0 0 0 0 0 0 0 0 0 0 0 0 0 0 0 0 0 0 0 0 0 0 0 0 -0 0 0 0 0 0 0 0 0 0 0
0 0 0 0 0 0 0 0 0 0 0 0 0 0 0 0 0 0 0 0 0 0 0 0 0 0 0 0 0 0 0 0 -0 0 -0 -0 0 0 0 0 0 0 0
0 0 0 0 0 0 0 0 0 0 0 0 0 0 0 0 0 0 0 0 0 0 0 0 0 0 0 0 0 0 0 0 0 0 0 -0 0 0 0 0 0 0 0
0 0 0 0 0 0 0 0 0 0 0 0 0 0 0 0 0 0 0 0 0 0 0 0 0 0 0 0 0 0 0 0 0 0 0 0 0 0 0 0 0 0 0
0 0 0 0 0 0 0 0 0 0 0 0 0 0 0 0 0 0 0 0 0 0 0 0 0 0 0 0 0 0 0 0 0 0 0 0 0 0 0 0 0 -0 -0
Wind_Speed_500mb
31 30 31 33 35 35 36 34 35 33 32 30 30 31 29 28 27 27 27 26 27 29 29 28 28 28 29 28 31 36 41 47 48 47 49 52 53 54 54 53 50 45 41
35 36 37 37 36 35 36 37 37 37 37 35 35 34 33 32 32 31 31 30 29 30 29 28 27 28 30 33 38 41 44 47 50 51 53 52 55 58 59 62 62 60 58
39 41 40 41 40 38 36 38 39 40 41 38 39 35 36 34 36 35 33 32 28 27 27 25 30 35 37 36 36 37 44 44 44 45 46 52 54 59 62 63 68 70 66
48 48 47 44 42 46 43 44 43 42 43 41 40 38 38 38 32 28 29 27 24 28 28 29 30 31 33 35 35 35 38 38 41 38 40 39 42 39 44 56 68 64 76
58 57 54 48 42 49 50 48 48 47 45 41 39 39 37 36 34 32 32 31 29 28 30 36 34 36 36 30 28 26 27 31 32 32 33 37 38 43 41 41 47 62 82
60 59 58 51 42 48 47 48 51 52 52 51 48 46 43 39 36 37 37 39 40 38 38 34 28 28 32 27 29 33 30 37 39 35 35 36 36 39 42 42 44 44 62
54 53 54 50 47 46 48 50 48 48 53 52 51 52 49 47 45 41 38 36 34 35 24 9 14 14 21 31 32 32 33 32 33 37 37 37 38 38 39 38 40 45 48
48 50 50 51 50 49 46 48 51 52 51 55 54 50 45 42 43 27 18 23 25 9 15 21 27 26 28 27 28 30 32 31 31 36 41 42 42 42 42 41 42 44 44
46 44 46 45 45 46 48 50 47 47 53 57 49 46 16 18 20 20 23 12 13 14 18 15 15 20 20 24 29 32 32 33 34 37 41 43 46 46 48 51 52 52 52
39 40 42 42 43 48 51 45 42 43 48 51 51 51 44 41 17 10 18 10 12 14 15 15 16 18 23 25 27 29 30 33 35 36 35 34 36 39 40 41 44 46 49
33 34 33 38 39 44 46 51 48 46 45 48 47 40 37 35 42 32 22 31 20 15 17 17 20 22 20 21 22 22 21 21 23 26 28 31 33 35 37 40 42 44 46
32 35 36 37 43 46 43 41 46 41 33 35 35 37 38 39 37 37 30 32 27 22 22 22 18 14 14 12 11 14 16 18 21 25 28 32 34 36 39 43 45 48 47
36 38 38 45 38 36 37 31 35 42 40 41 40 41 40 44 41 38 35 34 36 34 29 23 16 7 4 7 9 13 16 20 26 30 34 36 38 42 45 48 49 49 50
36 36 41 38 39 41 42 44 46 47 45 43 38 36 35 37 40 39 38 36 32 32 33 26 20 9 2 5 9 13 18 23 29 34 37 41 46 51 54 56 56 54 54
42 43 44 47 49 51 50 45 42 38 35 35 35 36 38 35 35 35 33 31 31 28 33 26 15 11 5 5 9 15 22 29 33 38 41 44 48 51 52 54 55 57 61
45 46 47 47 47 44 40 35 32 30 32 33 34 34 34 33 31 30 27 25 26 24 23 27 18 10 6 10 15 19 24 30 33 37 41 45 48 51 54 53 52 54 56
44 45 44 43 40 38 35 34 33 33 34 34 35 35 34 32 30 28 25 24 24 24 23 26 18 11 7 10 15 20 26 32 36 40 43 46 51 53 54 54 56 58 61
44 44 42 41 39 38 37 38 38 37 38 38 38 38 37 35 33 31 29 26 23 22 22 20 17 12 10 10 14 20 25 32 34 38 40 40 44 48 50 53 55 58 59
47 47 46 44 43 42 43 43 42 41 40 40 39 39 38 38 37 35 31 25 23 21 18 15 13 11 13 16 19 23 25 28 36 37 36 40 42 45 46 48 52 54 57
53 51 50 49 49 47 46 45 44 43 42 42 42 44 44 44 41 36 31 28 24 20 15 12 11 13 16 21 29 34 36 40 40 42 38 43 44 45 46 49 53 55 58
59 57 55 53 51 49 48 47 46 46 46 47 49 50 49 47 42 39 35 31 24 18 13 12 12 15 20 26 34 43 47 45 43 48 48 47 49 45 45 49 54 56 59
64 63 60 57 55 54 51 51 51 50 51 51 50 51 49 46 42 38 32 28 24 19 16 14 16 20 27 30 35 41 47 53 47 49 64 56 51 45 53 54 57 57 57
69 67 63 61 59 55 56 55 55 54 52 52 52 52 50 45 42 36 31 27 21 17 15 17 20 23 28 33 36 39 43 48 52 58 67 68 54 62 60 60 59 52 64
71 68 64 62 59 56 58 57 56 56 55 53 53 50 47 44 39 34 28 25 20 19 18 19 23 26 29 34 34 38 42 44 44 52 62 63 71 77 73 67 54 63 73
70 67 63 60 58 55 59 57 55 57 58 56 54 51 47 42 35 32 29 24 23 22 21 21 23 26 29 35 36 37 40 46 49 50 51 59 72 84 80 68 64 83 74
71 66 65 64 60 56 60 55 56 57 59 59 54 48 46 42 38 31 27 24 24 20 21 21 23 26 26 30 36 38 41 43 46 42 45 59 59 73 72 75 95 85 81
Wind_Direction_500mb
287 285 283 278 276 275 275 274 276 279 284 288 289 293 294 295 295 294 294 295 295 296 297 301 305 309 309 307 302 298 294 292 291 291 289 289 291 291 291 288 289 286 276
289 286 281 279 277 276 275 275 274 275 277 279 281 285 287 288 287 288 291 293 295 297 301 308 316 314 308 303 297 296 296 294 292 292 288 288 288 287 285 285 284 284 284
285 285 283 277 274 275 277 275 275 274 274 275 276 275 277 279 281 287 293 299 305 308 307 310 305 301 300 298 297 296 296 302 307 299 298 287 292 292 289 284 283 279 275
276 275 275 277 273 271 274 274 275 276 275 275 280 283 285 288 289 298 307 304 308 306 310 300 298 301 303 305 303 297 295 296 300 303 313 309 304 298 301 295 286 294 278
275 272 269 272 271 268 268 273 273 275 279 283 288 288 286 290 290 292 298 303 301 286 283 283 285 288 295 297 294 295 298 299 304 308 303 304 313 316 313 302 317 308 282
274 268 265 266 270 270 271 271 273 274 275 278 281 283 285 286 287 287 284 282 277 269 271 275 272 274 280 285 291 281 277 282 295 306 311 316 311 316 322 329 314 305 304
269 261 257 256 263 261 271 272 273 271 275 275 276 278 278 276 276 280 287 283 280 277 276 254 261 276 299 296 288 288 292 307 309 314 320 318 317 315 313 316 321 327 336
270 257 251 252 257 259 262 265 269 273 272 274 269 274 274 277 286 281 268 282 283 244 225 281 283 279 285 287 295 299 304 312 315 318 320 322 317 314 319 321 320 322 324
272 259 253 256 254 258 265 267 269 273 273 276 270 265 238 227 245 246 283 267 196 238 269 263 266 273 288 297 297 301 305 310 315 316 319 317 315 318 321 317 318 318 318
263 257 256 253 258 260 259 261 267 272 272 272 270 267 265 268 242 225 211 175 216 230 222 239 256 274 290 297 303 311 314 317 318 325 331 336 340 340 337 334 331 330 323
263 256 255 254 257 260 264 265 262 263 258 263 260 253 243 255 252 251 200 165 199 218 247 251 265 278 293 304 312 324 337 348 350 348 349 351 352 350 349 349 346 343 340
264 262 264 263 262 263 256 260 261 264 259 267 263 256 253 241 239 217 209 194 208 211 235 244 261 281 304 326 354 357 354 349 357 358 358 357 359 1 0 359 357 354 352
257 260 264 272 263 270 257 268 263 268 265 267 261 256 253 248 251 238 219 217 201 210 215 220 238 259 325 352 7 4 360 360 4 2 360 0 0 359 1 0 359 357 356
265 263 266 261 271 268 264 265 265 268 262 260 259 248 241 242 237 236 230 225 204 205 209 221 215 213 316 339 357 355 347 350 357 359 358 358 358 360 360 358 358 357 356
263 262 263 264 265 266 267 264 260 255 252 250 247 243 242 242 238 236 232 224 214 196 200 201 208 218 272 320 348 352 347 346 355 354 354 354 355 358 357 356 355 353 351
262 261 262 260 260 259 254 248 244 242 240 240 238 235 235 233 232 229 223 212 200 196 187 192 200 222 274 316 336 344 344 344 351 351 351 352 352 353 352 351 350 348 348
262 260 258 256 252 249 247 245 244 243 243 241 240 237 234 230 226 220 210 198 189 189 190 193 204 220 260 306 328 334 338 339 345 345 347 349 348 348 347 345 344 343 342
256 253 250 247 245 246 248 249 248 246 242 239 236 233 229 223 216 211 206 201 198 195 196 192 201 222 257 292 321 330 337 337 340 341 343 342 340 340 339 338 336 336 336
251 247 245 245 247 249 248 246 244 242 239 235 233 228 222 219 214 211 210 209 209 206 201 204 220 253 291 310 317 322 329 334 335 338 337 336 336 336 333 330 329 331 331
251 249 247 247 247 246 245 245 243 239 236 232 229 226 221 216 213 213 215 219 222 224 224 232 253 281 297 312 318 322 326 335 335 329 335 333 335 333 330 328 329 329 330
250 249 249 249 248 246 245 242 239 236 235 232 228 222 218 218 218 218 218 221 226 235 247 261 275 293 310 320 325 329 329 331 334 324 329 331 331 330 328 329 328 329 330
251 251 251 249 247 245 242 238 235 235 233 230 226 222 220 221 221 222 226 231 235 243 255 274 291 304 313 318 322 325 328 330 344 329 326 335 332 334 335 334 331 329 329
250 249 247 245 242 239 239 238 236 233 231 228 225 225 224 223 223 224 227 234 239 254 268 286 296 303 310 314 320 323 326 334 337 332 328 331 331 333 335 334 329 326 335
246 245 244 241 238 237 239 238 236 233 232 228 227 227 229 229 229 229 232 242 255 267 278 285 295 303 308 309 317 322 327 330 329 325 327 328 328 327 331 333 328 330 338
246 245 242 241 240 237 240 240 237 230 227 229 229 228 231 232 231 232 230 237 246 260 272 285 292 297 304 312 320 323 322 321 327 331 325 328 329 324 326 329 326 331 340
247 243 242 241 240 237 239 239 234 223 224 226 225 229 230 229 230 232 229 235 246 256 269 279 289 294 302 310 315 319 323 325 330 336 324 328 331 333 329 326 323 329 336
Wind_Speed_850mb
31 30 31 33 35 35 36 34 35 33 32 30 30 31 29 28 27 27 27 26 27 29 29 28 28 28 29 28 31 36 41 47 48 47 49 52 53 54 54 53 50 45 41
35 36 37 37 36 35 36 37 37 37 37 35 35 34 33 32 32 31 31 30 29 30 29 28 27 28 30 33 38 41 44 47 50 51 53 52 55 58 59 62 62 60 58
39 41 40 41 40 38 36 38 39 40 41 38 39 35 36 34 36 35 33 32 28 27 27 25 30 35 37 36 36 37 44 44 44 45 46 52 54 59 62 63 68 70 66
48 48 47 44 42 46 43 44 43 42 43 41 40 38 38 38 32 28 29 27 24 28 28 29 30 31 33 35 35 35 38 38 41 38 40 39 42 39 44 56 68 64 76
58 57 54 48 42 49 50 48 48 47 45 41 39 39 37 36 34 32 32 31 29 28 30 36 34 36 36 30 28 26 27 31 32 32 33 37 38 43 41 41 47 62 82
60 59 58 51 42 48 47 48 51 52 52 51 48 46 43 39 36 37 37 39 40 38 38 34 28 28 32 27 29 33 30 37 39 35 35 36 36 39 42 42 44 44 62
54 53 54 50 47 46 48 50 48 48 53 52 51 52 49 47 45 41 38 36 34 35 24 9 14 14 21 31 32 32 33 32 33 37 37 37 38 38 39 38 40 45 48
48 50 50 51 50 49 46 48 51 52 51 55 54 50 45 42 43 27 18 23 25 9 15 21 27 26 28 27 28 30 32 31 31 36 41 42 42 42 42 41 42 44 44
46 44 46 45 45 46 48 50 47 47 53 57 49 46 16 18 20 20 23 12 13 14 18 15 15 20 20 24 29 32 32 33 34 37 41 43 46 46 48 51 52 52 52
39 40 42 42 43 48 51 45 42 43 48 51 51 51 44 41 17 10 18 10 12 14 15 15 16 18 23 25 27 29 30 33 35 36 35 34 36 39 40 41 44 46 49
33 34 33 38 39 44 46 51 48 46 45 48 47 40 37 35 42 32 22 31 20 15 17 17 20 22 20 21 22 22 21 21 23 26 28 31 33 35 37 40 42 44 46
32 35 36 37 43 46 43 41 46 41 33 35 35 37 38 39 37 37 30 32 27 22 22 22 18 14 14 12 11 14 16 18 21 25 28 32 34 36 39 43 45 48 47
36 38 38 45 38 36 37 31 35 42 40 41 40 41 40 44 41 38 35 34 36 34 29 23 16 7 4 7 9 13 16 20 26 30 34 36 38 42 45 48 49 49 50
36 36 41 38 39 41 42 44 46 47 45 43 38 36 35 37 40 39 38 36 32 32 33 26 20 9 2 5 9 13 18 23 29 34 37 41 46 51 54 56 56 54 54
42 43 44 47 49 51 50 45 42 38 35 35 35 36 38 35 35 35 33 31 31 28 33 26 15 11 5 5 9 15 22 29 33 38 41 44 48 51 52 54 55 57 61
45 46 47 47 47 44 40 35 32 30 32 33 34 34 34 33 31 30 27 25 26 24 23 27 18 10 6 10 15 19 24 30 33 37 41 45 48 51 54 53 52 54 56
44 45 44 43 40 38 35 34 33 33 34 34 35 35 34 32 30 28 25 24 24 24 23 26 18 11 7 10 15 20 26 32 36 40 43 46 51 53 54 54 56 58 61
44 44 42 41 39 38 37 38 38 37 38 38 38 38 37 35 33 31 29 26 23 22 22 20 17 12 10 10 14 20 25 32 34 38 40 40 44 48 50 53 55 58 59
47 47 46 44 43 42 43 43 42 41 40 40 39 39 38 38 37 35 31 25 23 21 18 15 13 11 13 16 19 23 25 28 36 37 36 40 42 45 46 48 52 54 57
53 51 50 49 49 47 46 45 44 43 42 42 42 44 44 44 41 36 31 28 24 20 15 12 11 13 16 21 29 34 36 40 40 42 38 43 44 45 46 49 53 55 58
59 57 55 53 51 49 48 47 46 46 46 47 49 50 49 47 42 39 35 31 24 18 13 12 12 15 20 26 34 43 47 45 43 48 48 47 49 45 45 49 54 56 59
64 63 60 57 55 54 51 51 51 50 51 51 50 51 49 46 42 38 32 28 24 19 16 14 16 20 27 30 35 41 47 53 47 49 64 56 51 45 53 54 57 57 57
69 67 63 61 59 55 56 55 55 54 52 52 52 52 50 45 42 36 31 27 21 17 15 17 20 23 28 33 36 39 43 48 52 58 67 68 54 62 60 60 59 52 64
71 68 64 62 59 56 58 57 56 56 55 53 53 50 47 44 39 34 28 25 20 19 18 19 23 26 29 34 34 38 42 44 44 52 62 63 71 77 73 67 54 63 73
70 67 63 60 58 55 59 57 55 57 58 56 54 51 47 42 35 32 29 24 23 22 21 21 23 26 29 35 36 37 40 46 49 50 51 59 72 84 80 68 64 83 74
71 66 65 64 60 56 60 55 56 57 59 59 54 48 46 42 38 31 27 24 24 20 21 21 23 26 26 30 36 38 41 43 46 42 45 59 59 73 72 75 95 85 81
Wind_Direction_850mb
287 285 283 278 276 275 275 274 276 279 284 288 289 293 294 295 295 294 294 295 295 296 297 301 305 309 309 307 302 298 294 292 291 291 289 289 291 291 291 288 289 286 276
289 286 281 279 277 276 275 275 274 275 277 279 281 285 287 288 287 288 291 293 295 297 301 308 316 314 308 303 297 296 296 294 292 292 288 288 288 287 285 285 284 284 284
285 285 283 277 274 275 277 275 275 274 274 275 276 275 277 279 281 287 293 299 305 308 307 310 305 301 300 298 297 296 296 302 307 299 298 287 292 292 289 284 283 279 275
276 275 275 277 273 271 274 274 275 276 275 275 280 283 285 288 289 298 307 304 308 306 310 300 298 301 303 305 303 297 295 296 300 303 313 309 304 298 301 295 286 294 278
275 272 269 272 271 268 268 273 273 275 279 283 288 288 286 290 290 292 298 303 301 286 283 283 285 288 295 297 294 295 298 299 304 308 303 304 313 316 313 302 317 308 282
274 268 265 266 270 270 271 271 273 274 275 278 281 283 285 286 287 287 284 282 277 269 271 275 272 274 280 285 291 281 277 282 295 306 311 316 311 316 322 329 314 305 304
269 261 257 256 263 261 271 272 273 271 275 275 276 278 278 276 276 280 287 283 280 277 276 254 261 276 299 296 288 288 292 307 309 314 320 318 317 315 313 316 321 327 336
270 257 251 252 257 259 262 265 269 273 272 274 269 274 274 277 286 281 268 282 283 244 225 281 283 279 285 287 295 299 304 312 315 318 320 322 317 314 319 321 320 322 324
272 259 253 256 254 258 265 267 269 273 273 276 270 265 238 227 245 246 283 267 196 238 269 263 266 273 288 297 297 301 305 310 315 316 319 317 315 318 321 317 318 318 318
263 257 256 253 258 260 259 261 267 272 272 272 270 267 265 268 242 225 211 175 216 230 222 239 256 274 290 297 303 311 314 317 318 325 331 336 340 340 337 334 331 330 323
263 256 255 254 257 260 264 265 262 263 258 263 260 253 243 255 252 251 200 165 199 218 247 251 265 278 293 304 312 324 337 348 350 348 349 351 352 350 349 349 346 343 340
264 262 264 263 262 263 256 260 261 264 259 267 263 256 253 241 239 217 209 194 208 211 235 244 261 281 304 326 354 357 354 349 357 358 358 357 359 1 0 359 357 354 352
257 260 264 272 263 270 257 268 263 268 265 267 261 256 253 248 251 238 219 217 201 210 215 220 238 259 325 352 7 4 360 360 4 2 360 0 0 359 1 0 359 357 356
265 263 266 261 271 268 264 265 265 268 262 260 259 248 241 242 237 236 230 225 204 205 209 221 215 213 316 339 357 355 347 350 357 359 358 358 358 360 360 358 358 357 356
263 262 263 264 265 266 267 264 260 255 252 250 247 243 242 242 238 236 232 224 214 196 200 201 208 218 272 320 348 352 347 346 355 354 354 354 355 358 357 356 355 353 351
262 261 262 260 260 259 254 248 244 242 240 240 238 235 235 233 232 229 223 212 200 196 187 192 200 222 274 316 336 344 344 344 351 351 351 352 352 353 352 351 350 348 348
262 260 258 256 252 249 247 245 244 243 243 241 240 237 234 230 226 220 210 198 189 189 190 193 204 220 260 306 328 334 338 339 345 345 347 349 348 348 347 345 344 343 342
256 253 250 247 245 246 248 249 248 246 242 239 236 233 229 223 216 211 206 201 198 195 196 192 201 222 257 292 321 330 337 337 340 341 343 342 340 340 339 338 336 336 336
251 247 245 245 247 249 248 246 244 242 239 235 233 228 222 219 214 211 210 209 209 206 201 204 220 253 291 310 317 322 329 334 335 338 337 336 336 336 333 330 329 331 331
251 249 247 247 247 246 245 245 243 239 236 232 229 226 221 216 213 213 215 219 222 224 224 232 253 281 297 312 318 322 326 335 335 329 335 333 335 333 330 328 329 329 330
250 249 249 249 248 246 245 242 239 236 235 232 228 222 218 218 218 218 218 221 226 235 247 261 275 293 310 320 325 329 329 331 334 324 329 331 331 330 328 329 328 329 330
251 251 251 249 247 245 242 238 235 235 233 230 226 222 220 221 221 222 226 231 235 243 255 274 291 304 313 318 322 325 328 330 344 329 326 335 332 334 335 334 331 329 329
250 249 247 245 242 239 239 238 236 233 231 228 225 225 224 223 223 224 227 234 239 254 268 286 296 303 310 314 320 323 326 334 337 332 328 331 331 333 335 334 329 326 335
246 245 244 241 238 237 239 238 236 233 232 228 227 227 229 229 229 229 232 242 255 267 278 285 295 303 308 309 317 322 327 330 329 325 327 328 328 327 331 333 328 330 338
246 245 242 241 240 237 240 240 237 230 227 229 229 228 231 232 231 232 230 237 246 260 272 285 292 297 304 312 320 323 322 321 327 331 325 328 329 324 326 329 326 331 340
247 243 242 241 240 237 239 239 234 223 224 226 225 229 230 229 230 232 229 235 246 256 269 279 289 294 302 310 315 319 323 325 330 336 324 328 331 333 329 326 323 329 336